User: anonymous   Login
Location: Unspecified
(0.0000°N, 0.0000°E)
Time: 13:19:56
(UTC+00:00)
Language:

NIUSAT - Orbit

View from above orbital plane
View from above orbital plane
View from above satellite
View from above satellite

Ground track
Ground track

The orbit data is extracted from the following two-line orbital elements,

1 42766U 17036B   21016.09807735  .00001013  00000-0  46888-4 0  9994
2 42766  97.2728  67.2161 0015016 358.9178   1.2023 15.22246954198038
Epoch (UTC): 16 January 2021 02:21:13
Eccentricity: 0.0015016
inclination: 97.2728°
perigee height: 489 km
apogee height: 509 km
right ascension of ascending node: 67.2161°
argument of perigee: 358.9178°
revolutions per day: 15.22246954
mean anomaly at epoch: 1.2023°
orbit number at epoch: 19803

The dashed part of the orbit path shows where the satellite is in the earth's shadow,  

DLR